Location: Ahausen
(50.4985°N, 8.2722°E)
Time: 21:01:02
(UTC+00:00)

JY1SAT - Pass Details

Date: 04 July 2022
Orbit: 563 x 586 km, 97.6° (Epoch: 13 August)

Event Time Altitude Azimuth Distance (km) Brightness Sun altitude
Exits shadow 22:01:56 - 217° (SW) 2,355 ? -14.1°
Reaches altitude 10° 22:03:28 10° 231° (SW) 1,914 ? -14.2°
Maximum altitude 22:06:05 16° 271° (W) 1,552 ? -14.3°
Drops below altitude 10° 22:08:44 10° 310° (NW) 1,921 ? -14.4°
Sets 22:11:38 0° 332° (NNW) 2,825 ? -14.6°
